Theta_e
299 299 299 298 297 297 297 296 296 296 296 296 296 296 295 295 295 294 294 294 295 296 297 296 295 294 294 293 294 295 294 293 293 293 293 293 293 291 291 291 291 293 293
299 299 299 298 298 297 297 296 296 296 296 296 296 295 295 295 294 293 293 295 296 296 296 296 295 294 293 293 294 296 295 293 293 293 292 292 292 291 290 290 291 292 291
299 299 299 298 298 297 297 296 296 296 296 296 295 295 294 294 293 293 293 295 295 293 295 296 295 293 293 294 295 296 295 295 294 293 292 292 292 291 290 289 289 291 290
299 299 299 299 298 297 297 297 296 296 296 295 295 294 294 294 293 292 293 294 294 294 295 296 295 293 293 295 295 297 296 294 294 294 293 292 292 290 289 289 289 289 290
299 299 299 299 298 298 297 297 296 296 296 296 294 294 293 293 293 293 293 295 295 295 296 296 295 293 294 296 296 296 296 294 294 294 292 290 290 290 290 289 289 289 289
299 299 299 298 298 298 297 297 296 296 296 295 294 294 293 293 293 294 296 296 296 296 295 296 295 293 291 294 296 295 295 294 294 292 291 290 290 290 289 289 289 289 289
299 299 299 298 298 298 297 296 296 296 296 295 295 293 293 293 293 294 296 297 296 295 295 296 295 292 291 293 294 294 293 294 293 292 292 291 291 291 290 289 290 290 289
298 298 298 298 298 298 297 297 296 296 296 296 295 293 293 293 293 295 296 296 296 294 295 295 294 292 292 295 294 292 292 292 292 293 292 292 292 291 290 289 289 289 289
297 298 298 298 298 298 298 297 296 296 296 296 295 294 293 293 293 294 296 296 295 294 295 294 294 292 292 294 293 291 291 291 291 291 293 293 293 292 291 290 289 289 289
297 298 298 298 298 298 298 297 297 296 296 296 295 295 293 294 294 294 296 296 295 295 294 295 293 293 293 294 293 291 290 292 291 291 291 292 292 291 291 290 290 288 288
298 298 298 298 298 298 298 298 297 296 296 296 296 295 295 294 294 294 295 296 296 295 295 294 293 292 293 293 293 291 292 291 289 290 291 291 291 290 291 291 290 290 289
298 298 298 298 298 297 297 297 297 296 296 296 296 296 295 295 294 295 295 297 297 296 296 295 294 292 293 292 292 291 292 289 289 289 290 290 290 290 290 290 291 291 290
298 298 298 298 298 297 297 297 296 296 296 295 295 295 296 295 295 295 295 297 298 297 296 295 294 294 293 291 290 292 290 289 289 289 289 289 289 289 290 289 290 290 290
298 298 297 297 297 297 297 297 297 296 295 295 295 295 295 295 295 295 295 297 297 296 295 294 293 293 292 292 292 290 289 289 288 288 288 288 288 289 289 289 289 289 289
298 297 297 297 297 297 297 297 297 297 296 295 295 295 295 295 295 295 295 295 296 295 293 293 291 290 291 290 290 291 290 291 289 289 288 288 288 288 288 288 288 288 288
297 297 297 296 296 296 296 296 296 297 297 297 296 296 295 295 296 295 295 295 295 294 292 291 290 290 290 290 290 290 290 291 290 289 288 288 288 288 288 288 288 288 287
297 297 297 296 296 296 296 295 295 296 296 296 296 296 296 295 295 296 296 296 295 293 291 289 290 290 290 290 289 289 289 290 290 289 288 288 288 287 287 287 287 287 287
298 297 297 296 296 296 295 295 295 295 294 296 296 296 296 296 296 295 295 295 293 292 291 289 289 289 289 289 289 289 289 289 289 289 288 288 288 287 287 287 287 287 287
299 297 297 296 296 296 296 295 295 294 294 295 295 296 297 297 297 296 295 294 292 290 291 289 289 289 289 289 289 289 289 289 289 289 288 288 288 287 287 286 287 287 287
298 298 297 297 295 295 295 294 294 294 294 294 294 295 296 296 296 296 295 293 291 290 289 290 289 289 289 289 288 289 289 289 289 288 288 288 288 287 286 286 286 286 286
298 297 296 296 295 295 294 294 294 293 293 293 294 295 295 295 295 294 294 293 292 289 289 290 289 289 288 288 288 288 288 288 288 287 287 287 287 287 286 286 286 286 286
297 297 296 296 296 294 294 294 294 293 293 293 294 294 295 295 294 293 293 293 291 290 289 289 289 288 288 288 288 287 288 287 287 287 286 287 287 286 285 286 286 286 286
296 296 296 295 296 295 294 294 293 293 293 293 293 293 294 294 294 293 293 292 291 290 289 289 288 288 287 287 287 287 287 286 286 286 286 286 286 286 285 285 286 286 286
296 296 295 295 295 295 294 294 293 293 293 293 293 293 293 293 293 293 293 292 291 291 289 288 287 287 287 287 287 286 286 285 286 286 286 285 286 285 285 285 286 286 285
295 296 295 294 294 294 294 293 293 293 293 292 292 292 293 293 293 293 293 292 291 290 289 288 286 286 286 286 286 286 285 285 285 285 285 285 285 285 285 285 286 285 285
295 295 295 294 294 293 294 293 293 293 292 292 292 292 292 292 292 292 292 291 290 289 288 287 286 285 286 285 285 284 285 284 284 284 284 285 285 285 285 285 285 285 284
Wind_Speed
32 31 29 27 25 22 22 20 18 17 16 14 14 14 13 13 12 12 12 12 13 14 14 12 14 14 14 14 14 15 14 13 6 15 18 17 17 21 23 22 19 18 20
33 32 31 29 26 25 24 22 19 19 16 16 15 15 14 13 12 12 12 12 14 15 13 11 14 14 13 13 14 14 14 14 10 12 16 19 13 19 21 19 19 16 20
34 33 32 31 29 28 26 23 21 20 18 16 16 16 15 13 12 11 11 11 14 15 13 12 14 13 13 13 14 15 12 14 15 13 12 19 15 17 23 21 20 16 23
36 35 35 34 32 29 27 24 22 21 20 18 17 17 15 14 13 12 11 10 12 14 11 11 12 13 12 16 13 14 9 13 16 16 11 16 13 17 20 19 22 22 18
37 37 38 35 32 30 28 26 24 22 22 20 18 17 15 15 14 12 12 13 14 14 11 11 11 12 10 11 12 13 9 10 15 13 10 11 11 13 15 17 16 21 10
40 40 38 36 33 32 30 27 25 24 23 21 20 18 17 16 14 13 13 15 14 15 15 13 10 10 10 9 10 11 10 12 13 10 10 8 10 13 13 12 12 13 6
40 40 39 36 35 34 31 28 28 26 24 23 21 19 19 17 15 13 13 15 14 15 13 13 10 9 9 7 10 11 9 6 9 6 10 11 12 13 11 11 12 11 8
38 39 39 37 36 35 32 31 30 28 26 25 23 20 19 18 15 14 13 15 14 14 12 11 10 9 8 8 10 12 7 7 6 6 8 9 12 10 10 8 10 11 4
35 38 39 37 37 36 35 34 32 29 28 26 24 21 20 19 16 14 13 15 14 13 10 7 10 10 7 7 11 11 9 9 6 4 4 7 7 7 9 11 7 8 4
36 39 38 37 37 37 36 35 32 31 29 26 25 23 21 20 16 14 13 14 14 12 11 11 8 10 6 7 9 9 9 9 8 7 7 6 6 6 6 7 8 6 4
35 35 36 36 37 37 36 34 32 31 29 27 26 24 22 20 18 15 14 15 14 11 10 8 8 7 8 8 6 7 8 8 6 6 5 4 4 5 6 7 6 5 5
30 32 34 35 35 35 35 33 32 30 29 29 27 26 24 21 18 17 16 16 14 12 11 11 8 8 7 6 4 4 4 6 3 3 4 6 7 7 7 7 6 7 8
27 30 32 33 33 34 33 33 32 31 31 30 28 28 27 21 18 16 15 16 15 15 13 13 10 8 8 5 3 2 3 3 2 3 4 5 6 7 6 6 6 7 7
27 29 31 32 32 32 34 34 33 32 31 28 25 25 28 22 18 17 16 17 15 14 12 11 11 10 8 8 6 4 1 1 2 2 2 3 4 4 5 6 5 7 5
29 30 31 32 31 32 35 36 36 36 35 30 31 29 26 23 21 18 18 19 19 15 12 12 10 9 9 8 8 6 5 2 1 0 0 1 2 4 4 6 6 6 6
28 28 29 29 30 30 31 31 33 35 33 32 30 28 24 21 17 18 17 17 15 12 12 12 11 11 10 11 9 8 7 5 4 2 2 1 1 3 5 5 6 6 7
30 26 29 28 28 27 28 25 21 30 32 31 29 26 24 20 17 16 16 16 14 13 14 13 13 13 12 12 10 10 9 6 5 5 4 1 1 4 5 5 5 6 7
28 31 29 29 29 30 28 27 26 22 21 27 30 27 25 21 20 19 18 16 17 16 18 16 16 15 15 14 12 12 10 9 8 6 5 2 2 3 3 4 4 3 4
26 28 28 30 30 30 29 28 27 24 23 23 24 24 25 24 20 19 19 24 23 21 20 17 17 17 16 15 14 13 11 10 10 8 5 2 2 2 2 1 1 1 2
25 27 27 29 27 26 25 24 24 24 23 24 26 27 26 23 22 25 25 26 24 22 22 21 19 18 17 16 15 14 13 12 11 8 6 3 1 1 1 2 2 3 3
25 25 25 25 27 26 26 25 22 23 23 23 28 29 27 30 28 30 31 29 27 23 22 23 22 20 19 18 16 16 15 14 12 8 5 4 2 3 2 2 2 2 2
24 25 24 27 27 27 27 27 26 25 24 24 27 28 25 27 30 31 31 30 28 24 23 23 24 22 21 20 18 18 17 16 13 9 7 5 2 4 4 3 2 2 1
22 24 25 25 26 24 24 25 26 26 25 27 27 28 27 29 31 31 30 28 27 26 24 24 23 22 22 20 18 18 18 17 15 11 9 6 5 5 5 4 4 3 3
20 24 25 25 24 26 25 23 25 26 25 26 27 28 30 31 32 32 30 28 27 27 27 25 24 24 23 20 19 18 16 14 13 12 9 9 7 6 6 6 5 4 4
20 23 24 25 24 23 23 23 23 24 25 25 26 28 29 31 32 32 29 29 27 28 28 25 24 26 25 23 22 21 18 16 14 12 11 11 8 8 7 7 7 6 5
21 21 24 25 25 24 23 21 22 23 24 24 26 28 29 31 32 31 30 30 29 29 28 26 25 28 27 26 23 20 18 17 15 13 12 10 9 9 9 8 7 7 7
Wind_Direction
223 225 229 232 235 238 242 246 249 258 260 262 270 276 281 284 290 293 296 291 293 303 319 310 308 312 314 316 323 323 326 334 295 317 339 343 342 355 343 344 357 6 1
224 226 230 234 236 238 240 244 248 254 256 261 267 272 276 278 286 290 290 287 288 301 309 313 315 316 315 316 322 314 317 334 331 318 336 348 337 354 356 1 9 19 12
224 226 230 232 235 238 240 243 246 252 255 257 263 268 272 274 282 285 281 284 291 300 298 310 310 314 315 310 316 311 311 328 338 331 331 352 342 352 4 3 4 21 26
225 226 229 232 234 238 241 243 245 249 254 256 262 267 267 271 277 281 276 284 301 306 295 303 304 307 311 315 317 328 320 328 336 337 345 347 353 357 3 6 2 7 21
225 226 230 234 237 240 240 241 244 246 252 258 260 263 265 265 273 278 274 277 295 307 297 301 298 309 304 305 316 330 329 337 347 342 356 350 351 351 355 359 0 2 7
224 227 231 234 236 238 239 241 243 244 249 255 256 260 262 262 270 272 272 278 283 295 295 302 292 308 312 296 313 317 320 325 341 341 356 343 350 1 1 0 2 355 359
224 228 231 233 235 237 238 239 241 242 248 251 255 257 260 262 266 269 271 272 278 292 289 301 284 298 315 292 317 316 312 321 335 332 337 348 345 356 356 355 0 357 5
222 226 231 232 234 236 237 238 241 242 245 250 254 256 258 261 263 264 267 268 274 289 284 293 271 285 313 315 312 325 315 322 325 317 330 344 2 8 5 353 5 6 46
223 226 231 232 233 234 235 238 241 241 244 248 253 255 256 260 262 262 260 262 268 284 278 281 280 267 294 311 308 323 328 337 335 296 305 315 329 359 8 30 30 18 359
228 232 234 234 234 235 237 239 241 241 247 250 253 255 256 261 263 261 253 256 258 274 275 285 275 259 263 300 304 317 333 353 352 342 327 319 300 300 317 351 19 40 2
238 237 236 236 236 239 240 241 242 243 246 248 251 254 255 257 261 258 249 248 253 261 268 285 273 243 268 287 286 305 332 331 336 353 20 21 7 353 328 305 316 347 5
242 239 238 239 238 239 239 241 241 241 243 246 248 253 254 257 256 254 249 240 245 245 253 271 276 259 278 277 274 287 307 327 10 15 31 23 12 11 358 344 301 296 308
247 243 240 240 241 240 239 238 238 239 239 243 245 249 256 256 254 249 242 234 235 243 259 254 252 252 269 262 211 296 285 319 2 38 33 15 5 358 359 353 347 333 336
248 245 244 241 240 239 239 239 238 233 232 235 237 242 255 256 250 242 236 227 230 221 245 237 234 255 246 245 232 219 214 357 354 43 25 7 2 2 5 7 0 354 354
250 249 245 243 239 241 239 237 235 240 239 232 239 245 250 252 246 242 232 228 221 230 241 242 244 227 219 210 192 192 189 206 231 229 302 351 360 11 26 22 16 16 21
241 236 238 237 238 234 237 236 241 246 249 250 253 255 257 257 253 237 228 222 226 226 215 229 218 213 211 199 192 188 189 210 230 238 238 262 356 32 37 38 28 22 15
248 237 233 225 226 228 228 226 230 240 243 248 248 247 249 247 230 216 214 213 218 208 221 221 211 206 206 202 198 196 199 208 223 238 239 236 53 54 46 34 33 29 15
258 250 236 229 222 220 222 226 229 225 224 233 238 238 236 233 230 227 212 206 210 213 223 219 210 204 202 203 199 198 200 209 221 228 232 211 82 72 61 43 29 12 343
258 252 236 235 232 230 222 219 226 227 227 230 238 229 225 227 224 215 208 212 216 217 217 215 210 206 204 205 205 201 205 210 218 220 226 206 106 107 116 175 265 331 324
263 257 243 235 229 225 222 217 209 217 223 223 226 230 224 215 208 208 210 215 220 225 219 215 212 208 205 204 204 204 204 205 209 220 232 208 161 177 214 276 301 319 328
267 259 238 227 225 221 223 219 218 213 216 221 229 236 230 214 207 210 213 217 222 222 218 214 210 208 208 206 205 207 208 209 212 210 221 201 213 227 235 277 293 310 335
268 259 246 225 224 219 219 221 218 218 219 218 230 235 232 216 218 218 223 225 225 223 218 215 209 210 210 209 207 208 208 207 206 203 208 196 224 239 245 251 238 227 239
269 256 247 237 228 224 219 219 214 214 217 220 223 230 219 210 221 225 226 226 224 217 214 212 215 212 210 209 211 214 213 215 212 206 210 212 235 232 238 249 246 237 212
273 257 248 242 232 224 220 215 218 218 216 218 218 222 224 216 220 225 226 224 221 218 213 214 215 209 203 204 204 206 217 211 203 209 212 221 224 225 236 235 225 233 227
286 265 252 241 232 223 219 218 216 217 215 214 217 220 226 225 223 225 222 217 217 213 213 216 214 207 203 207 209 212 210 203 207 212 218 217 225 215 222 231 213 200 199
292 274 256 246 235 227 221 216 217 217 215 211 214 219 223 222 222 219 217 213 213 213 216 215 213 207 207 211 214 211 207 204 213 217 217 219 228 212 211 213 210 197 184